MMS 2 (40483 NORAD) Tracking and Keplerian Element Data

This shows tracking and keplerian element data for the satellite.

Feedback or suggestion? Click here.




ElementValue
Catalog40483
NameMMS 2
Epoch Orbit1532
Epoch Day160.25001157
Epoch Year2024
RAAN11.766
Inclination47.5883
Eccentricity0.9100768
Argument of Perigee146.1581
Mean Anonmoly294.112
Mean Motion0.28392127
Decay Rate-1.064E-05
L11 40483U 15011B 24160.25001157 -.00001064 00000+0 00000+0 0 9991
L22 40483 47.5883 11.7660 9100768 146.1581 294.1120 0.28392127 15328



Live tracking and technical data element details for MMS 2 (NORAD 40483). MMS 2 can be tracked NOW for your location showing map with azimuth and elevation plus other details from your city location.







IsCatalogInMostPopularTable: catalog: 40483, numindb: 665
Update: records affected: 1



GetName: 40483 MMS 2

Hit Count: updated at: Mon, 17 Jun 2024 22:57:45 GMT